Skip Page Navigation
NASA JPL Caltech
NASA Logo - Jet Propulsion Laboratory + View the NASA Portal
+ Near-Earth Object (NEO) Program
Search JPL
JPL Home Earth Solar System Stars & Galaxies Technology
JPL Solar System Dynamics
BODIES ORBITS EPHEMERIDES TOOLS PHYSICAL DATA DISCOVERY FAQ SITE MAP
JPL Small-Body Database Browser
Search: [ help ]  
20888 Siyueguo (2000 WB14)
Classification: Main-belt Asteroid          SPK-ID: 2020888
Ephemeris | Orbit Diagram | Orbital Elements | Physical Parameters | Discovery Circumstances ]

[ hide orbit diagram ]
Orbit Diagram
Note: Make sure you have Java enabled on your browser to see the applet. This applet is provided as a 3D orbit visualization tool. The applet was implemented using 2-body methods, and hence should not be used for determining accurate long-term trajectories (over several years or decades) or planetary encounter circumstances. For accurate long-term ephemerides, please instead use our Horizons system.
Orbit Viewer

Additional Notes: the orbits shown in the applet are color coded. The planets are white lines, and the asteroid/comet is a blue line. The bright white line indicates the portion of the orbit that is above the ecliptic plane, and the darker portion is below the ecliptic plane. Likewise for the asteroid/comet orbit, the light blue indicates the portion above the ecliptic plane, and the dark blue the portion below the ecliptic plane.

Orbit Viewer applet originally written and kindly provided by Osamu Ajiki (AstroArts), and further modified by Ron Baalke (JPL).


Orbital Elements at Epoch 2456400.5 (2013-Apr-18.0) TDB
Reference: MPO216624 (heliocentric ecliptic J2000)
 Element Value Uncertainty (1-sigma)   Units 
e 0.0921625 n/a  
a 2.6787077 n/a AU
q 2.4318313 n/a AU
i 1.50110 n/a deg
node 299.67622 n/a deg
peri 47.62192 n/a deg
M 0.13271 n/a deg
tp 2456399.9096799
(2013-Apr-17.40967990)
n/a JED
period 1601.3505435
4.38
n/a
n/a
d
yr
n 0.22481024 n/a deg/d
Q 2.9255841 n/a AU
  Orbit Determination Parameters
   # obs. used (total)      462  
   first obs. used      1991-??-??  
   last obs. used      2011-06-28  
   # oppositions      13  
   planetary ephem.      DE403  
   condition code      0  
   fit RMS      0.51  
   data source      MPC:mpn  
   producer      MPCLINUX  

Additional Information
 T_jup = 3.371 

Ephemeris | Orbit Diagram | Orbital Elements | Physical Parameters | Discovery Circumstances ]

Physical Parameter Table
Parameter Symbol Value Units Sigma Reference Notes
absolute magnitude H 15.1 mag n/a PDS3 (MPO 7972)  

20888 Siyueguo           Discovered 2000 Nov. 20 by the Lincoln Laboratory Near-Earth Asteroid Research Team at Socorro.
Si Yue Guo (b. 1987) was awarded first place in the 2004 Intel International Science and Engineering Fair for her physics team project. She also received the MILSET Expo-Science Europe award. She attends the College Regina Assumpta, Montreal, Quebec, Canada.
NOTE: some special characters may not display properly (any characters within {} are an attempt to place the proper accent above a character)
Reference: 20041226/MPCPages.arcLast Updated: 2004-12-25
Ephemeris | Orbit Diagram | Orbital Elements | Physical Parameters | Discovery Circumstances ]
ABOUT SSD CREDITS/AWARDS PRIVACY/COPYRIGHT GLOSSARY LINKS
FirstGov 2013-May-19 18:10 UT
(server date/time)  
NASA Home Page
Site Manager:   Donald K. Yeomans
Webmaster  Alan B. Chamberlin